Reflectivity
-18 -20 -20 -3 -16 -14 -10 -14 9 -5 -18 -20 -20 -20 -20 -20 -20 -20 -20 -20 -20 -20 -20 -20 -20 -20 -20 -20 -20 -20 -20 -20 -20 -20 -20 -20 -20 -20 -20 -20 -20 -20 -20
-20 -20 -20 -20 -20 -20 -20 -12 -8 2 -11 -20 -20 -20 -20 -20 -20 -20 -20 -20 -20 -20 -20 -20 -20 -20 -20 -20 -20 -20 -20 -20 -20 -20 -20 -20 -20 -20 -20 -20 -20 -20 -20
-20 -20 -20 -20 -20 -20 -20 -20 2 0 -19 -20 -13 -20 -20 -20 -20 -20 -20 -20 -20 -20 -20 -20 -20 -20 -20 -20 -20 -20 -20 -20 -20 -20 -20 -20 -20 -20 -20 -20 -20 -20 -20
-5 -20 -20 -20 -20 -20 -20 -20 -20 -10 -20 -5 -19 -20 -20 -20 -20 -20 -20 -20 -20 -20 -20 -20 -20 -20 -20 -20 -20 -20 -20 -20 -20 -20 -20 -20 -20 -20 -20 -20 -20 -20 -20
-12 -1 7 -20 -20 -20 -20 -20 -20 -20 -12 -20 -20 -20 -20 -20 -20 -20 -20 -20 -20 -20 -20 -20 -20 -20 -20 -20 -20 -20 -20 -20 -20 -20 -20 -20 -20 -20 -20 -20 -20 -20 -20
-20 -20 -20 7 -19 -15 -20 -20 -20 -20 -20 -20 -20 -20 -20 -20 -20 -20 -20 -20 -20 -20 -20 -20 -20 -20 -20 -20 -20 -20 -20 -20 -20 -20 -20 -20 -20 -20 -20 -20 -20 -20 -20
-20 -20 -20 -20 -20 -19 -20 -20 -20 -20 -20 -20 -20 -20 -20 -20 -20 -20 -20 -20 -20 -20 -20 -20 -20 -20 -20 -20 -20 -20 -20 -20 -20 -20 -20 -20 -20 -20 -18 -11 -20 -20 -20
-20 -20 -20 -20 -20 -20 -20 -20 -20 -20 -20 -20 -20 -20 -20 -20 -20 -20 -20 -20 -20 -20 -20 -20 -20 -20 -20 -20 -20 -20 -20 -20 -20 -20 -20 -20 -20 -20 -18 -5 -20 -20 -20
-20 -20 -20 -20 -18 -13 -20 -20 -20 -20 -20 -20 -20 -20 -20 -20 -20 -20 -20 -20 -20 -20 -20 -20 -20 -20 -20 -20 -20 -20 -20 -20 -20 -20 -20 -20 -20 -20 -20 -20 -15 -19 -20
-20 -20 -20 -4 -1 -5 -20 -20 -20 -20 -20 -20 -20 -20 -20 -20 -20 -20 -20 -20 -20 -20 -20 -20 -20 -20 -20 -20 -20 -20 -20 -20 -20 -20 -20 -20 -20 -20 -20 -20 -4 -2 -9
-20 -20 -20 -20 -20 -20 -20 -20 -20 -20 -20 -20 -20 -20 -20 -20 -20 -20 -20 -20 -20 -20 -20 -20 -20 -20 -20 -20 -20 -20 -20 -20 -20 -20 -20 -20 -20 -20 -20 -20 -20 -20 -6
-20 -20 -20 -20 -20 -20 -20 -20 -20 -20 -20 -20 -20 -20 -20 -20 -20 -20 -20 -20 -20 -20 -20 -20 -20 -20 -20 -20 -20 -20 -20 -20 -20 -20 -20 -20 -20 -20 -20 -20 -20 -2 -20
-20 -20 -20 -20 -20 -20 -20 -20 -20 -20 -20 -20 -20 -20 -20 -20 -20 -20 -20 -20 -20 -20 -20 -20 -20 -20 -20 -20 -20 -20 -20 -20 -20 -20 -20 -20 -20 -20 -20 -20 -17 -5 -20
-20 -20 -20 -20 -20 -20 -20 -20 -20 -20 -20 -20 -20 -20 -20 -20 -20 -20 -20 -20 -20 -20 -20 -20 -20 -20 -20 -20 -20 -20 -20 -20 -20 -20 -20 -20 -20 -20 -20 -20 -20 -20 -20
-20 -20 -20 -20 -20 -20 -20 -20 -20 -20 -20 -20 -20 -20 -20 -20 -20 -20 -20 -20 -20 -20 -20 -20 -20 -20 -20 -20 -20 -20 -20 -20 -20 -20 -20 -20 -20 -20 -20 -20 -20 -20 -20
-20 -20 -20 -20 -20 -20 -20 -20 -20 -20 -20 -20 -20 -20 -20 -20 -20 -20 -20 -20 -20 -20 -20 -20 -20 -20 -20 -20 -20 -20 -20 -20 -20 -20 -20 -20 -20 -20 -20 -20 -20 -20 -20
-20 -20 -20 -20 -20 -20 -20 -20 -20 -20 -20 -20 -20 -20 -20 -20 -20 -20 -20 -20 -20 -20 -20 -20 -20 -20 -20 -20 -20 -20 -20 -20 -20 -20 -20 -20 -20 -20 -20 -20 -20 -20 -20
-20 -20 -20 -20 -20 -20 -20 -20 -20 -20 -20 -20 -20 -20 -20 -20 -20 -20 -20 -20 -20 -20 -20 -20 -20 -20 -20 -20 -20 -20 -20 -20 -20 -20 -20 -20 -20 -20 -20 -20 -20 -20 -20
-20 -20 -20 -20 -20 -20 -20 -20 -20 -20 -20 -20 -20 -20 -20 -20 -20 -20 -20 -20 -20 -20 -20 -20 -20 -20 -20 -20 -20 -20 -20 -20 -20 -20 -20 -20 -20 -20 -20 -20 -20 -20 -20
-20 -20 -20 -20 -20 -20 -20 -20 -20 -20 -20 -20 -20 -20 -20 -20 -20 -20 -20 -20 -20 -20 -20 -20 -20 -20 -20 -20 -20 -20 -20 -20 -20 -20 -20 -20 -20 -20 -20 -20 -20 -20 -20
-20 -20 -20 -20 -20 -20 -20 -20 -20 -20 -20 -20 -20 -20 -20 -20 -20 -20 -20 -20 -20 -20 -20 -20 -20 -20 -20 -20 -20 -20 -20 -20 -20 -20 -20 -20 -20 -20 -20 -20 -20 -20 -20
-20 -20 -20 -20 -20 -20 -20 -20 -20 -20 -20 -20 -20 -20 -20 -20 -20 -20 -20 -20 -20 -20 -20 -20 -20 -20 -20 -20 -20 -20 -20 -20 -20 -20 -20 -20 -20 -20 -20 -20 -20 -20 -20
-20 -20 -20 -20 -20 -20 -20 -20 -20 -20 -20 -20 -20 -20 -20 -20 -20 -20 -20 -20 -20 -15 -5 2 -14 -20 -20 -20 -20 -20 -20 -20 -20 -20 -20 -20 -20 -20 -20 -20 -20 -20 -20
-20 -20 -20 -20 -20 -20 -20 -20 -20 -20 -20 -20 -16 -8 -13 -14 -20 -18 -20 -20 -19 0 4 2 2 -4 -20 -20 -20 -20 -20 -20 -20 -20 -20 -20 -20 -20 -20 -20 -20 -20 -20
-20 -20 -20 -20 -20 -20 -20 -20 -20 -20 -20 -20 -20 -20 -20 -17 -14 -15 -20 0 3 10 10 -1 -3 -4 -18 -20 -20 -20 -20 -20 -20 -20 -20 -20 -20 -20 -20 -20 -20 -20 -20
-20 -20 -20 -20 -20 -20 -20 -20 -20 -20 -20 -20 -20 -20 -20 -20 -20 -20 -10 -8 19 -6 4 11 -8 -18 -20 -20 -20 -20 -20 -20 -20 -20 -20 -20 -20 -20 -20 -20 -20 -20 -20
Wind_Speed
18 12 11 10 11 10 10 9 9 7 8 7 5 4 4 4 4 3 3 2 1 2 3 3 3 3 4 5 5 5 6 5 6 3 3 3 2 3 2 4 4 5 5
17 12 11 11 11 12 11 9 8 8 7 3 4 2 4 3 3 3 4 3 1 2 4 4 3 3 3 3 4 5 4 3 5 4 3 2 4 1 2 2 4 6 3
19 17 15 13 13 13 12 11 9 10 7 5 5 4 4 3 4 5 4 2 2 2 3 3 3 3 3 3 3 4 5 4 3 5 4 3 3 5 1 1 2 5 4
15 17 16 15 15 14 12 9 10 9 7 8 7 9 6 5 4 4 3 2 1 1 2 2 3 3 3 4 3 2 3 3 3 1 2 3 4 4 3 1 3 4 4
17 16 15 16 16 14 13 12 10 10 11 10 9 7 6 4 3 4 4 2 2 1 0 2 2 3 3 4 4 4 4 3 3 3 3 3 3 3 3 6 5 6 1
15 16 16 14 13 13 12 12 13 12 11 10 10 9 8 6 5 4 3 2 1 1 0 2 2 3 3 4 4 4 5 4 4 4 4 4 4 3 4 6 7 8 4
17 17 18 17 16 16 14 12 14 13 12 11 10 9 7 7 6 4 3 3 2 1 0 2 2 2 3 4 4 4 4 4 4 5 4 4 4 4 5 6 7 6 7
16 17 19 17 17 17 15 15 14 13 12 11 10 7 6 4 3 4 3 2 2 1 2 3 3 3 3 3 4 3 3 4 4 6 4 4 4 3 4 4 6 7 6
18 20 18 15 16 16 16 16 14 13 12 11 9 8 7 6 5 4 3 2 2 1 1 2 2 2 2 2 3 3 4 4 4 5 5 4 4 3 4 4 4 3 4
14 15 14 16 14 14 15 14 13 13 12 11 9 8 7 6 5 5 5 4 3 3 2 2 1 0 0 1 2 2 2 4 3 3 5 5 4 4 3 4 4 5 6
11 12 12 12 13 14 14 13 13 13 12 10 9 8 7 7 6 5 5 5 5 4 3 3 2 2 1 1 1 1 2 3 3 3 4 5 5 4 4 4 4 5 6
9 10 12 13 13 13 13 13 12 12 11 10 9 9 8 7 7 6 6 5 5 5 4 3 3 3 3 3 3 2 2 3 4 4 4 5 3 5 5 4 5 6 7
8 9 11 12 13 13 12 13 12 12 11 10 10 9 9 9 8 8 7 6 6 5 5 4 4 3 4 3 3 2 3 3 3 4 5 5 5 5 4 5 5 5 5
8 10 11 11 12 13 13 13 12 12 12 11 11 11 11 10 9 8 7 6 5 5 5 4 4 4 3 3 3 3 4 3 4 4 5 5 5 5 6 5 6 5 6
10 13 14 14 15 15 14 13 13 13 13 12 12 11 10 9 9 8 7 6 5 5 4 4 4 4 3 3 4 3 3 3 4 3 4 4 5 4 5 4 5 6 5
10 13 15 15 16 16 15 14 13 13 13 12 12 11 10 10 9 8 8 7 6 5 5 4 4 4 3 4 4 3 2 2 3 3 4 4 3 4 4 5 5 5 6
11 14 16 16 15 16 16 16 15 14 13 13 12 11 11 11 10 9 8 8 7 6 5 4 4 4 3 2 3 2 1 1 2 2 3 3 3 4 6 5 5 4 5
9 11 12 14 16 16 16 15 14 14 13 12 12 12 12 11 10 10 9 8 7 7 6 5 4 4 3 1 2 1 1 1 1 0 1 3 5 6 8 8 8 8 7
6 8 11 14 14 16 15 15 14 14 14 14 14 14 13 12 12 11 10 8 7 6 6 5 5 4 4 2 1 2 2 1 1 1 2 4 4 6 8 8 8 9 8
5 5 8 11 14 15 17 17 16 16 16 15 15 14 13 13 12 11 10 8 7 6 5 5 4 4 4 3 3 4 2 2 1 1 2 1 5 7 8 8 8 9 9
4 4 7 10 13 15 17 18 17 17 15 13 13 12 12 12 10 9 8 7 7 6 6 5 5 5 5 5 5 4 3 2 2 2 2 3 6 9 10 8 7 8 12
3 3 6 8 9 13 15 16 17 13 13 13 13 12 11 8 8 9 7 7 7 7 6 6 5 4 5 7 6 6 6 4 4 4 4 4 6 11 11 9 10 13 11
4 4 6 7 8 11 15 15 13 13 13 13 12 12 11 10 9 9 9 7 7 6 5 5 4 5 4 4 7 7 7 7 5 4 7 12 14 13 11 11 12 13 7
5 5 6 8 10 11 13 12 13 13 14 14 13 11 11 10 9 6 6 6 6 5 5 5 5 4 4 4 4 4 4 6 6 6 7 9 12 14 13 11 9 7 7
5 6 8 8 9 11 13 11 12 14 13 12 11 11 9 10 8 7 7 6 6 5 5 5 5 4 5 5 5 5 4 5 6 7 7 7 7 7 7 7 7 7 8
6 8 8 8 9 11 11 11 11 13 13 12 9 8 8 7 6 5 4 6 7 8 11 11 8 4 9 10 10 11 12 12 11 7 7 8 8 8 8 8 8 8 10
Wind_Direction
183 180 169 157 152 150 159 164 162 168 167 167 165 178 186 180 182 182 178 182 194 286 284 300 311 337 352 5 1 353 358 8 353 297 230 224 228 7 13 23 30 28 31
178 173 163 167 172 172 172 169 171 173 181 178 167 168 162 186 176 176 173 159 310 302 296 290 296 300 308 344 3 9 346 7 9 350 278 295 176 160 21 10 24 15 7
190 179 177 181 180 180 179 178 178 182 177 171 153 141 134 146 185 188 181 185 283 292 289 284 286 287 284 307 337 355 360 347 13 12 346 308 350 329 140 302 327 358 351
204 196 186 188 187 190 180 171 175 170 176 185 191 196 205 201 191 181 175 215 227 273 284 297 294 284 271 273 288 301 322 319 345 317 15 343 328 336 323 180 326 316 311
197 199 200 198 190 180 182 179 171 176 188 196 204 203 209 194 168 182 202 201 191 218 52 327 299 281 267 266 268 265 272 299 310 325 330 324 314 283 302 307 331 329 300
203 205 196 191 193 182 175 176 182 187 188 195 200 206 205 189 188 195 209 206 207 184 113 324 300 286 279 275 274 269 267 289 298 298 299 308 315 329 309 307 318 321 332
204 202 197 191 188 185 174 179 185 186 187 191 194 199 200 195 204 198 206 207 218 209 68 329 311 303 300 280 275 268 265 263 276 289 296 293 290 309 306 305 299 309 316
209 203 204 195 193 183 177 184 187 185 184 186 186 184 179 183 183 187 193 207 227 248 319 306 300 303 290 282 274 271 274 275 264 272 268 286 291 284 283 282 309 315 306
206 202 199 188 193 182 182 186 184 183 182 179 170 168 166 171 174 168 178 181 184 217 272 288 291 282 279 283 273 267 270 266 268 274 270 265 278 278 277 278 272 277 304
215 209 197 195 190 183 183 180 183 179 172 170 168 165 162 161 154 167 173 170 158 179 188 184 187 140 33 321 278 265 265 268 263 268 270 274 280 281 275 273 271 263 267
221 210 204 196 189 182 176 175 173 168 167 165 162 160 156 158 161 166 166 170 167 167 160 143 128 111 106 55 327 348 332 297 294 268 277 277 280 276 274 267 264 264 257
229 211 197 187 182 179 175 169 168 169 165 165 161 159 156 161 166 169 168 172 167 165 154 140 127 107 84 62 39 359 2 339 328 330 315 310 307 288 289 285 280 281 283
214 194 187 184 179 173 170 169 169 166 164 161 161 162 165 171 173 171 171 174 168 154 140 140 122 106 87 75 58 9 5 1 357 357 344 340 327 314 326 308 304 301 298
210 195 187 184 178 177 174 171 169 167 165 168 169 170 173 175 173 170 172 166 163 154 145 125 109 97 88 56 42 21 16 25 33 24 12 6 353 341 335 323 318 314 307
200 197 194 185 182 181 177 176 173 173 171 170 174 177 171 170 169 170 168 160 159 144 133 130 115 108 79 40 27 39 35 37 50 55 32 35 22 10 7 339 340 326 318
211 204 201 195 190 185 182 179 176 176 175 175 178 171 169 169 172 170 169 164 158 155 153 142 132 130 103 61 57 13 49 62 50 44 39 44 37 32 26 18 358 339 327
219 207 206 203 197 191 184 183 179 171 179 179 175 172 172 174 176 173 171 170 171 163 163 152 151 144 126 52 64 44 33 52 69 46 19 14 18 348 347 349 323 314 317
248 229 214 206 199 192 189 182 177 178 179 180 175 175 177 177 176 176 180 175 172 172 166 160 159 159 135 47 80 75 47 76 101 61 354 344 348 8 343 333 329 327 325
262 244 225 215 200 194 184 179 178 179 181 183 182 181 181 178 179 184 182 177 177 171 172 171 170 181 176 197 198 219 213 210 155 11 19 346 339 358 345 330 327 322 321
267 245 221 206 200 192 182 182 183 184 191 187 186 181 182 182 184 184 178 174 179 172 169 176 193 200 205 194 247 228 218 224 298 304 308 227 341 339 345 329 326 317 323
303 235 209 205 206 191 184 186 183 195 189 183 176 179 183 186 184 175 171 170 171 171 184 193 194 205 216 204 227 233 237 260 275 280 300 319 327 322 322 318 309 309 313
288 231 218 218 208 192 190 186 192 185 176 172 174 176 178 174 173 172 167 171 176 187 193 199 207 208 209 223 216 232 247 250 268 289 300 301 296 296 295 291 285 293 296
271 221 214 212 201 197 199 193 189 172 171 173 175 175 172 173 172 174 175 178 189 195 197 201 211 211 207 226 220 246 248 249 263 272 288 296 301 300 294 282 282 288 280
253 229 214 210 199 194 199 198 176 175 173 173 173 173 174 172 173 179 183 187 187 196 204 210 222 218 217 229 226 232 232 239 250 259 271 280 284 285 287 293 294 288 283
233 219 217 217 206 189 191 182 171 167 169 171 172 171 170 175 176 187 188 197 209 201 205 217 225 223 227 233 235 240 233 244 256 269 272 273 276 278 280 281 282 283 283
223 216 217 212 195 189 185 179 172 172 168 171 170 170 170 172 176 178 190 225 236 224 232 237 229 230 241 250 251 252 255 261 268 270 270 272 274 278 283 287 290 293 293